Location: Recife
(8.0585°S, 34.8848°W)
Time: 20:48:18
(UTC-03:00)

S-56A Canister/Altair - Pass Details

Date: 14 April 2026
Orbit: 633 x 2484 km, 38.9° (Epoch: 16 May)

Event Time Altitude Azimuth Distance (km) Brightness Sun altitude
Rises 11:39:19 0° 335° (NNW) 5,956 12.3 71.7°
Reaches altitude 10° 11:44:46 10° 348° (NNW) 4,727 12.0 71.3°
Maximum altitude 11:53:51 23° 34° (NE) 3,275 11.2 70.4°
Drops below altitude 10° 12:00:59 10° 81° (E) 3,643 11.0 69.6°
Sets 12:04:26 0° 96° (E) 4,328 11.2 69.2°
